EA3KZ-1 Weather Reports


time (UTC)temp
C
wind
direction
speed
KPH
gust
KPH
rain 1hr
cm
rain 24hr
cm
rain mn
cm
humidity
%
barometer
mb
20260831184528 25 103 3.2 12.9 0.00 0.00 0.00 71 1015.8
20260831183526 25 108 6.4 14.5 0.00 0.00 0.00 72 1015.7
20260831182523 25 173 3.2 9.7 0.00 0.00 0.00 71 1015.6
20260831181520 25 77 4.8 12.9 0.00 0.00 0.00 70 1015.5
20260831180518 25 116 4.8 12.9 0.00 0.00 0.00 70 1015.6
20260831175515 25 155 1.6 6.4 0.00 0.00 0.00 70 1015.5
20260831174613 25 91 8.0 20.9 0.00 0.00 0.00 71 1015.4
20260831173610 25 80 4.8 12.9 0.00 0.00 0.00 71 1015.5
20260831172608 26 115 4.8 17.7 0.00 0.00 0.00 71 1015.5
20260831171605 26 99 4.8 11.3 0.00 0.00 0.00 71 1015.4
20260831170602 26 41 4.8 14.5 0.00 0.00 0.00 72 1015.5
20260831165600 26 162 4.8 17.7 0.00 0.00 0.00 71 1015.5
20260831164557 26 142 6.4 17.7 0.00 0.00 0.00 71 1015.4
20260831163555 27 102 6.4 12.9 0.00 0.00 0.00 69 1015.5
20260831162552 27 147 3.2 14.5 0.00 0.00 0.00 70 1015.6
20260831161550 26 98 9.7 17.7 0.00 0.00 0.00 70 1015.6
20260831160547 26 135 8.0 20.9 0.00 0.00 0.00 70 1015.6
20260831155545 27 99 6.4 22.5 0.00 0.00 0.00 68 1015.7
20260831154542 27 80 6.4 20.9 0.00 0.00 0.00 67 1015.8
20260831153540 27 109 8.0 17.7 0.00 0.00 0.00 66 1015.6
20260831152537 28 119 4.8 24.1 0.00 0.00 0.00 65 1015.7
20260831151534 28 107 8.0 20.9 0.00 0.00 0.00 64 1015.6
20260831150532 28 101 6.4 17.7 0.00 0.00 0.00 64 1015.5
20260831145529 28 96 8.0 17.7 0.00 0.00 0.00 63 1015.5
20260831144527 28 138 8.0 20.9 0.00 0.00 0.00 63 1015.5
20260831143524 30 227 4.8 17.7 0.00 0.00 0.00 61 1015.4
20260831142521 30 144 4.8 14.5 0.00 0.00 0.00 61 1015.6
20260831141519 29 116 6.4 14.5 0.00 0.00 0.00 61 1015.5
20260831140516 30 161 4.8 12.9 0.00 0.00 0.00 60 1015.5
20260831135614 30 135 6.4 17.7 0.00 0.00 0.00 60 1015.4
20260831134611 29 171 6.4 17.7 0.00 0.00 0.00 61 1015.4
20260831133609 29 95 4.8 12.9 0.00 0.00 0.00 60 1015.4
20260831132606 28 113 4.8 11.3 0.00 0.00 0.00 61 1015.5
20260831131604 28 106 8.0 24.1 0.00 0.00 0.00 64 1015.5
20260831130601 28 339 11.3 17.7 0.00 0.00 0.00 63 1015.6
20260831125558 28 61 6.4 17.7 0.00 0.00 0.00 63 1015.5
20260831124556 28 22 11.3 22.5 0.00 0.00 0.00 62 1015.7
20260831123553 28 358 4.8 11.3 0.00 0.00 0.00 61 1015.7
20260831122551 28 91 6.4 14.5 0.00 0.00 0.00 60 1015.8
20260831121548 30 76 4.8 12.9 0.00 0.00 0.00 58 1015.8
20260831120545 29 163 4.8 9.7 0.00 0.00 0.00 59 1015.8
20260831115543 29 107 4.8 11.3 0.00 0.00 0.00 57 1015.9
20260831114540 29 105 3.2 14.5 0.00 0.00 0.00 55 1015.9
20260831113538 29 84 3.2 9.7 0.00 0.00 0.00 56 1015.9
20260831112535 29 107 6.4 11.3 0.00 0.00 0.00 55 1016.0
20260831111532 28 90 4.8 6.4 0.00 0.00 0.00 56 1016.1
20260831110530 28 102 3.2 6.4 0.00 0.00 0.00 56 1016.1
20260831105527 28 104 4.8 14.5 0.00 0.00 0.00 56 1016.2
20260831104525 28 134 3.2 9.7 0.00 0.00 0.00 60 1016.2
20260831103522 27 137 4.8 12.9 0.00 0.00 0.00 61 1016.2
20260831102519 26 293 4.8 6.4 0.00 0.00 0.00 63 1016.2
20260831101517 27 90 4.8 9.7 0.00 0.00 0.00 60 1016.3
20260831100614 27 128 0.0 3.2 0.00 0.00 0.00 61 1016.3
20260831095612 27 135 1.6 6.4 0.00 0.00 0.00 64 1016.2
20260831094609 26 116 3.2 9.7 0.00 0.00 0.00 65 1016.4
20260831093607 26 216 1.6 3.2 0.00 0.00 0.00 65 1016.4
20260831092604 26 125 4.8 11.3 0.00 0.00 0.00 67 1016.4
20260831091602 25 209 4.8 11.3 0.00 0.00 0.00 71 1016.3
20260831090559 25 146 1.6 6.4 0.00 0.00 0.00 70 1016.5
20260831085556 24 193 3.2 6.4 0.00 0.00 0.00 74 1016.3
20260831084554 24 141 6.4 11.3 0.00 0.00 0.00 75 1016.3
20260831083551 23 153 8.0 14.5 0.00 0.00 0.00 77 1016.2
20260831082548 25 122 3.2 9.7 0.00 0.00 0.00 74 1016.1
20260831081546 25 114 1.6 6.4 0.00 0.00 0.00 75 1016.0
20260831080543 25 93 1.6 6.4 0.00 0.00 0.00 73 1016.0
20260831075540 24 110 1.6 6.4 0.00 0.00 0.00 72 1015.9
20260831074538 23 212 3.2 6.4 0.00 0.00 0.00 72 1015.7
20260831073535 23 98 1.6 6.4 0.00 0.00 0.00 72 1015.6
20260831072533 23 140 1.6 3.2 0.00 0.00 0.00 71 1015.5
20260831071530 23 97 1.6 3.2 0.00 0.00 0.00 70 1015.5
20260831070527 22 90 1.6 3.2 0.00 0.00 0.00 70 1015.4
20260831065525 23 94 1.6 3.2 0.00 0.00 0.00 69 1015.3
20260831064522 22 113 0.0 3.2 0.00 0.00 0.00 69 1015.3
20260831063520 23 158 0.0 3.2 0.00 0.00 0.00 68 1015.0
20260831062517 22 248 0.0 3.2 0.00 0.00 0.00 63 1014.8
20260831061614 22 248 0.0 3.2 0.00 0.00 0.00 61 1014.8
20260831060612 21 248 0.0 3.2 0.00 0.00 0.00 59 1014.7
20260831055610 21 0.0 3.2 0.00 0.00 0.00 57 1014.5
20260831054607 21 264 1.6 3.2 0.00 0.00 0.00 57 1014.4
20260831053604 21 236 0.0 3.2 0.00 0.00 0.00 56 1014.4
20260831052602 20 258 1.6 3.2 0.00 0.00 0.00 57 1014.1
20260831051559 20 268 3.2 3.2 0.00 0.00 0.00 55 1014.1
20260831050556 21 270 0.0 3.2 0.00 0.00 0.00 54 1014.2
20260831045554 21 248 1.6 3.2 0.00 0.00 0.00 54 1014.1
20260831044551 20 259 3.2 6.4 0.00 0.00 0.00 54 1014.2
20260831043549 20 259 0.0 3.2 0.00 0.00 0.00 54 1014.1
20260831042546 21 257 1.6 3.2 0.00 0.00 0.00 54 1014.2
20260831041543 21 236 1.6 3.2 0.00 0.00 0.00 53 1014.2
20260831040541 21 0.0 0.0 0.00 0.00 0.00 53 1014.0
20260831035538 21 248 0.0 3.2 0.00 0.00 0.00 53 1014.0
20260831034535 21 260 3.2 6.4 0.00 0.00 0.00 53 1014.1
20260831033533 21 265 3.2 6.4 0.00 0.00 0.00 53 1014.0
20260831032530 21 0.0 0.0 0.00 0.00 0.00 53 1014.2
20260831031528 21 0.0 0.0 0.00 0.00 0.00 52 1014.1
20260831030525 21 0.0 3.2 0.00 0.00 0.00 52 1014.1
20260831025523 21 261 3.2 6.4 0.00 0.00 0.00 52 1014.0
20260831024520 21 252 3.2 3.2 0.00 0.00 0.00 52 1014.0
20260831023518 21 231 1.6 3.2 0.00 0.00 0.00 53 1014.1
20260831022515 21 248 0.0 3.2 0.00 0.00 0.00 53 1014.0
20260831021612 21 255 3.2 6.4 0.00 0.00 0.00 53 1013.9
20260831020610 21 252 1.6 3.2 0.00 0.00 0.00 53 1014.0
20260831015607 21 251 3.2 6.4 0.00 0.00 0.00 53 1014.1
20260831014605 21 216 1.6 3.2 0.00 0.00 0.00 54 1014.1
20260831013602 21 45 1.6 6.4 0.00 0.00 0.00 50 1013.9
20260831012600 21 0.0 0.0 0.00 0.00 0.00 52 1013.8
20260831011557 21 289 1.6 6.4 0.00 0.00 0.00 52 1013.8
20260831010554 21 270 0.0 3.2 0.00 0.00 0.00 53 1013.8
20260831005552 21 257 1.6 3.2 0.00 0.00 0.00 53 1013.9
20260831004549 21 244 3.2 3.2 0.00 0.00 0.00 53 1013.9
20260831003547 21 242 0.0 3.2 0.00 0.00 0.00 52 1013.8
20260831002544 21 167 0.0 3.2 0.00 0.00 0.00 53 1013.8
20260831001541 21 240 1.6 3.2 0.00 0.00 0.00 57 1013.7
20260831000539 21 0.0 0.0 0.00 0.00 0.00 59 1013.7
20260830235536 21 281 1.6 3.2 0.00 0.00 0.00 58 1013.8
20260830234534 21 135 1.6 3.2 0.00 0.00 0.00 58 1013.8
20260830233531 21 0.0 0.0 0.00 0.00 0.00 62 1014.1
20260830232528 22 237 3.2 6.4 0.00 0.00 0.00 61 1014.1
20260830231526 21 240 1.6 3.2 0.00 0.00 0.00 63 1014.0
20260830230523 21 236 3.2 6.4 0.00 0.00 0.00 67 1014.0
20260830225521 21 233 3.2 6.4 0.00 0.00 0.00 64 1014.1
20260830224518 21 205 3.2 6.4 0.00 0.00 0.00 67 1014.1
20260830223515 22 183 3.2 6.4 0.00 0.00 0.00 69 1014.1
20260830222613 22 177 3.2 6.4 0.00 0.00 0.00 71 1014.1
20260830221610 22 192 4.8 6.4 0.00 0.00 0.00 68 1014.0
20260830220608 22 198 3.2 6.4 0.00 0.00 0.00 66 1013.8
20260830215605 22 207 3.2 6.4 0.00 0.00 0.00 64 1013.9
20260830214603 22 231 4.8 6.4 0.00 0.00 0.00 66 1013.9
20260830213600 23 213 3.2 6.4 0.00 0.00 0.00 65 1013.8
20260830212557 22 224 4.8 9.7 0.00 0.00 0.00 62 1013.7
20260830211555 22 204 3.2 6.4 0.00 0.00 0.00 58 1013.7
20260830210552 23 220 4.8 6.4 0.00 0.00 0.00 58 1013.8
20260830205550 23 202 4.8 6.4 0.00 0.00 0.00 59 1013.8
20260830204547 23 239 4.8 9.7 0.00 0.00 0.00 58 1013.9
20260830203545 23 193 1.6 6.4 0.00 0.00 0.00 57 1013.7
20260830202542 23 198 4.8 11.3 0.00 0.00 0.00 55 1013.7
20260830201539 24 186 3.2 6.4 0.00 0.00 0.00 52 1013.6
20260830200537 24 206 3.2 6.4 0.00 0.00 0.00 50 1013.5
20260830195534 25 223 1.6 3.2 0.00 0.00 0.00 47 1013.6
20260830194531 25 217 1.6 6.4 0.00 0.00 0.00 47 1013.4
20260830193529 25 203 3.2 6.4 0.00 0.00 0.00 46 1013.5
20260830192526 25 206 3.2 6.4 0.00 0.00 0.00 45 1013.3
20260830191524 25 181 4.8 9.7 0.00 0.00 0.00 44 1013.1
20260830190521 26 187 4.8 6.4 0.00 0.00 0.00 43 1013.0
20260830185519 26 138 4.8 11.3 0.00 0.00 0.00 43 1013.0